Погода в Кашине

Россия / Владимирская область     55°59′52″N   38°51′18″E
темп.,
°C
ветер,
м/с
пор.,
м/с
влажн.,
%
обл.,
%
осадки,
мм/ч
давл.,
гПа
погр.,
м
11 апреля, вс
вс1100:00+1ю39782 0.0 1026154
03:000ююз27830 0.0 1026105
06:00+1ююз25825 0.0 102787
09:00+7юз24625 0.0 1029313
12:00+12юз34490 0.0 1029788
15:00+14юз34430 0.0 10291273
18:00+12ююз11540 0.0 103010
21:00+8юв22680 0.0 103210
12 апреля, пн
пн1200:00+6вюв22760 0.0 103312
03:00+5юв22810 0.0 103420
06:00+4вюв2484100 0.0 103564
09:00+9вюв4964100 0.0 1035415
12:00+12в5954100 0.0 1033820
15:00+13вюв5850100 0.0 1031935
18:00+11вюв41067100 0.0 1030728
21:00+8вюв3976100 0.0 1030373
13 апреля, вт
вт1300:00+6вюв3994100 0.0 1029216
03:00+5вюв389798 0.0 1028171
06:00+5вюв279635 0.0 1027130
09:00+12ююв496596 0.0 1027338
12:00+17ююв5945100 0.0 1026798
15:00+19ю4737100 0.0 10251451
18:00+16ююв2651100 0.0 1024123
21:00+11ююв376783 0.0 1025113
14 апреля, ср
ср1400:00+9ююв246882 0.0 102466
03:00+8ююв237497 0.0 102440
06:00+7ююв248060 0.0 102457
09:00+13ююв3757100 0.0 1023325
12:00+17ююв4641100 0.0 1022841
15:00+19ююв463366 0.0 10211660
18:00+16ююв3747100 0.0 1020185
21:00+12ююв2460100 0.0 102065
15 апреля, чт
чт1500:00+9юв2368100 0.0 101945
03:00+8юв2272100 0.0 101927
06:00+8ююв2277100 0.0 101928
09:00+13ююв235768 0.0 1018309
12:00+17ю2445100 0.0 1017814
15:00+18ююз1239100 0.0 10171412
18:00+16ссз2354100 0.0 101790
21:00+12ссв51175100 0.0 1018522